Tracking 29892 objects as of 21-Nov-2024
HD Live streaming from Space Station
objects crossing your sky now

FENGYUN 1C DEB

Track FENGYUN 1C DEB now!
10-day predictions


NORAD ID: 30138
Int'l Code: 1999-025ST
Perigee: 824.3 km
Apogee: 854.8 km
Inclination: 98.8 °
Period: 101.6 minutes
Semi major axis: 7210 km
RCS: 0.0422 m2 (small)
Launch date: May 10, 1999
Source: People's Republic of China (PRC)
Launch site: Taiyaun Space Center, China (TSC)

Note: This is SATELLITE DEBRIS
Your satellite tracking list
Your tracking list is empty




NASA's NSSDC Master Catalog

Two Line Element Set (TLE):
1 30138U 99025ST  24325.14498475  .00003615  00000-0  17850-2 0  9996
2 30138  98.7967  16.1415 0021192 167.1412 217.9887 14.17920911919048
Source of the keplerian elements: AFSPC